Date String (YYYY-MM-DD hh:mm:ss) UTC,Instrument flags,Ambient pressure (hPa),Sample flow (lpm),Bypass flow (lpm),Sample temperature (°C),Ambient temperature (°C),ASC tube jacket temperature (°C),LED temperature (°C),Box temperature (°C),Sample RH (%),Span deviation,Mass concentration (μg/m³),Mass concentration (μg/m³),Mass concentration (μg/m³)
DateTimeUTC,F1_M11,P_M11,Q1_M11,Q2_M11,T1_M11,T2_M11,T3_M11,T4_M11,T5_M11,U1_M11,ZSPAN_M11,X0_M11,X2_M11,X1_M11
2022-09-24 12:00:00,,0830.1,5.00,0.00,30.5,28.9,00.0,39.2,32.3,11.1,0000.0,0006.27,0002.69,0002.08
2022-09-24 12:01:00,,0830.1,4.99,0.00,30.5,28.9,00.0,39.2,32.3,11.1,0000.0,0006.72,0002.75,0002.08
2022-09-24 12:02:00,,0830.0,5.00,0.00,30.5,28.9,00.0,39.2,32.3,11.1,0000.0,0006.77,0002.77,0002.09
2022-09-24 12:03:00,,0830.1,5.00,0.00,30.5,28.9,00.0,39.2,32.3,11.1,0000.0,0005.58,0002.78,0002.10
2022-09-24 12:04:00,,0830.1,4.99,0.00,30.5,28.9,00.0,39.2,32.3,11.1,0000.0,0005.56,0002.81,0002.11
2022-09-24 12:05:00,,0830.1,5.02,0.00,30.5,29.0,00.0,39.2,32.3,11.2,0000.0,0005.36,0002.79,0002.10
2022-09-24 12:06:00,,0830.1,5.00,0.00,30.5,29.0,00.0,39.3,32.3,11.3,0000.0,0005.34,0002.79,0002.10
2022-09-24 12:07:00,,0830.2,5.00,0.00,30.5,28.9,00.0,39.3,32.3,11.4,0000.0,0005.00,0002.83,0002.12
2022-09-24 12:08:00,,0830.1,5.00,0.00,30.5,28.9,00.0,39.3,32.3,11.5,0000.0,0005.11,0002.88,0002.13
2022-09-24 12:09:00,,0830.1,5.00,0.00,30.5,28.9,00.0,39.3,32.3,11.5,0000.0,0005.20,0002.88,0002.15
2022-09-24 12:10:00,,0830.2,5.01,0.00,30.5,28.9,00.0,39.3,32.3,11.5,0000.0,0005.53,0002.94,0002.16
2022-09-24 12:11:00,,0830.2,4.98,0.00,30.5,28.9,00.0,39.3,32.3,11.5,0000.0,0005.59,0002.99,0002.19
2022-09-24 12:12:00,,0830.3,5.02,0.00,30.5,28.9,00.0,39.2,32.3,11.5,0000.0,0005.18,0002.97,0002.20
2022-09-24 12:13:00,,0830.3,4.99,0.00,30.5,28.9,00.0,39.2,32.3,11.5,0000.0,0005.33,0002.99,0002.22
2022-09-24 12:14:00,,0830.3,5.00,0.00,30.5,28.9,00.0,39.3,32.3,11.5,0000.0,0005.40,0003.02,0002.23
2022-09-24 12:15:00,,0830.3,5.00,0.00,30.5,28.9,00.0,39.2,32.3,11.5,0000.0,0005.54,0003.09,0002.24
2022-09-24 12:16:00,,0830.3,5.01,0.00,30.5,28.9,00.0,39.3,32.3,11.6,0000.0,0005.57,0003.09,0002.27
2022-09-24 12:17:00,,0830.3,4.99,0.00,30.5,28.9,00.0,39.3,32.3,11.6,0000.0,0005.70,0003.11,0002.29
2022-09-24 12:18:00,,0830.3,5.00,0.00,30.5,28.9,00.0,39.2,32.3,11.7,0000.0,0005.69,0003.09,0002.28
2022-09-24 12:19:00,,0830.3,5.01,0.00,30.5,28.9,00.0,39.3,32.3,12.3,0000.0,0005.47,0003.02,0002.27
2022-09-24 12:20:00,,0830.3,4.99,0.00,30.5,28.8,00.0,39.3,32.3,12.2,0000.0,0005.21,0002.99,0002.27
2022-09-24 12:21:00,,0830.3,5.00,0.00,30.5,28.8,00.0,39.3,32.3,11.8,0000.0,0004.80,0002.91,0002.26
2022-09-24 12:22:00,,0830.3,4.99,0.00,30.5,28.8,00.0,39.2,32.3,11.8,0000.0,0005.48,0002.98,0002.24
2022-09-24 12:23:00,,0830.2,5.00,0.00,30.4,28.9,00.0,39.2,32.3,11.7,0000.0,0008.33,0003.04,0002.24
2022-09-24 12:24:00,,0830.2,5.00,0.00,30.5,28.9,00.0,39.3,32.3,11.4,0000.0,0008.27,0002.99,0002.23
2022-09-24 12:25:00,,0830.1,5.00,0.00,30.4,28.8,00.0,39.3,32.2,11.6,0000.0,0008.43,0002.98,0002.22
2022-09-24 12:26:00,,0830.1,5.00,0.00,30.4,28.8,00.0,39.2,32.2,11.4,0000.0,0008.41,0002.93,0002.21
2022-09-24 12:27:00,,0830.1,4.99,0.00,30.4,28.8,00.0,39.2,32.2,11.2,0000.0,0008.79,0002.94,0002.19
2022-09-24 12:28:00,,0830.1,5.01,0.00,30.4,28.8,00.0,39.2,32.2,11.2,0000.0,0008.93,0002.94,0002.18
2022-09-24 12:29:00,,0830.1,4.98,0.00,30.4,28.8,00.0,39.2,32.2,11.2,0000.0,0009.03,0002.96,0002.17
2022-09-24 12:30:00,,0830.1,5.01,0.00,30.4,28.8,00.0,39.3,32.2,11.2,0000.0,0009.23,0003.03,0002.17
2022-09-24 12:31:00,,0830.1,4.99,0.00,30.4,28.8,00.0,39.2,32.2,11.2,0000.0,0009.38,0003.13,0002.17
2022-09-24 12:32:00,,0830.1,5.01,0.00,30.4,28.8,00.0,39.2,32.2,11.1,0000.0,0009.54,0003.16,0002.17
2022-09-24 12:33:00,,0830.1,5.00,0.00,30.4,28.8,00.0,39.2,32.2,11.0,0000.0,0009.31,0003.15,0002.17
2022-09-24 12:34:00,,0830.2,4.99,0.00,30.4,28.8,00.0,39.2,32.2,11.0,0000.0,0007.32,0003.12,0002.17
2022-09-24 12:35:00,,0830.1,5.00,0.00,30.4,28.8,00.0,39.2,32.2,11.0,0000.0,0007.91,0003.13,0002.16
2022-09-24 12:36:00,,0830.2,5.00,0.00,30.4,28.9,00.0,39.2,32.2,11.3,0000.0,0008.19,0003.16,0002.16
2022-09-24 12:37:00,,0830.3,4.99,0.00,30.4,28.9,00.0,39.2,32.2,11.3,0000.0,0008.35,0003.18,0002.15
2022-09-24 12:38:00,,0830.2,5.01,0.00,30.4,28.9,00.0,39.2,32.2,11.0,0000.0,0008.19,0003.17,0002.13
2022-09-24 12:39:00,,0830.2,5.00,0.00,30.4,28.8,00.0,39.2,32.2,10.9,0000.0,0007.95,0003.13,0002.12
2022-09-24 12:40:00,,0830.3,5.00,0.00,30.4,28.9,00.0,39.2,32.2,10.8,0000.0,0007.86,0003.11,0002.10
2022-09-24 12:41:00,,0830.2,5.00,0.00,30.4,28.9,00.0,39.2,32.2,11.1,0000.0,0007.72,0003.12,0002.10
2022-09-24 12:42:00,,0830.3,5.00,0.00,30.4,28.9,00.0,39.2,32.2,11.4,0000.0,0007.93,0003.12,0002.11
2022-09-24 12:43:00,,0830.2,5.00,0.00,30.4,28.8,00.0,39.2,32.2,11.4,0000.0,0008.09,0003.07,0002.10
2022-09-24 12:44:00,,0830.2,5.01,0.00,30.4,28.8,00.0,39.2,32.3,11.6,0000.0,0008.34,0003.09,0002.11
2022-09-24 12:45:00,,0830.2,4.99,0.00,30.4,28.8,00.0,39.2,32.2,11.7,0000.0,0009.10,0003.16,0002.09
2022-09-24 12:46:00,,0830.2,5.00,0.00,30.4,28.8,00.0,39.2,32.2,11.6,0000.0,0009.26,0003.21,0002.08
2022-09-24 12:47:00,,0830.2,5.01,0.00,30.4,28.8,00.0,39.2,32.2,11.4,0000.0,0009.19,0003.21,0002.07
2022-09-24 12:48:00,,0830.2,4.99,0.00,30.4,28.7,00.0,39.2,32.2,11.3,0000.0,0009.37,0003.20,0002.06
2022-09-24 12:49:00,,0830.3,5.01,0.00,30.4,28.7,00.0,39.2,32.2,11.3,0000.0,0009.56,0003.26,0002.07
2022-09-24 12:50:00,,0830.2,4.99,0.00,30.4,28.7,00.0,39.2,32.2,11.3,0000.0,0009.99,0003.30,0002.08
2022-09-24 12:51:00,,0830.2,5.01,0.00,30.4,28.7,00.0,39.2,32.2,11.3,0000.0,0010.18,0003.32,0002.08
2022-09-24 12:52:00,,0830.2,4.99,0.00,30.4,28.7,00.0,39.2,32.2,11.3,0000.0,0010.34,0003.28,0002.08
2022-09-24 12:53:00,,0830.3,5.00,0.00,30.4,28.7,00.0,39.2,32.2,11.4,0000.0,0009.99,0003.23,0002.07
2022-09-24 12:54:00,,0830.3,4.99,0.00,30.4,28.7,00.0,39.2,32.2,11.5,0000.0,0009.72,0003.24,0002.06
2022-09-24 12:55:00,,0830.3,5.01,0.00,30.4,28.7,00.0,39.2,32.1,11.5,0000.0,0009.12,0003.18,0002.04
2022-09-24 12:56:00,,0830.3,4.99,0.00,30.4,28.7,00.0,39.2,32.1,11.5,0000.0,0008.94,0003.15,0002.04
2022-09-24 12:57:00,,0830.3,5.01,0.00,30.4,28.7,00.0,39.2,32.1,11.4,0000.0,0008.34,0003.09,0002.06
2022-09-24 12:58:00,,0830.3,4.99,0.00,30.4,28.7,00.0,39.2,32.1,11.4,0000.0,0007.96,0003.02,0002.06
2022-09-24 12:59:00,,0830.2,5.01,0.00,30.4,28.7,00.0,39.2,32.1,11.4,0000.0,0007.83,0003.00,0002.08
